When you browse on this site, cookies collect data to enhance your experience and personalize the content and advertising you see.
Visit our Privacy Policy to learn more. By continuing to use the site, you agree to this use of cookies and data.
  • In Hungary
  • List of Countries
  • For 7 days
  • Water Temperature
  • Satellite Maps
  • Weather Map
  • News
  • Weather Widgets
  • user-avatar
    Login

    Hourly Weather Suchawa

    Today, 18 January, Friday

    Time Temperature Precipitation Wind Pressure Humidity
    00:00 -1°C° 0 mm 5 mps 743 mmHg 89%
    01:00 -1°C° 0 mm 4 mps 743 mmHg 90%
    02:00 -1°C° 0.1 mm 4 mps 743 mmHg 91%
    03:00 -1°C° 0.1 mm 4 mps 743 mmHg 92%
    04:00 -1°C° 0.1 mm 4 mps 743 mmHg 93%
    05:00 -1°C° 1 mm 4 mps 743 mmHg 93%
    06:00 -2°C° 1 mm 5 mps 744 mmHg 93%
    07:00 -3°C° 0 mm 7 mps 744 mmHg 92%
    08:00 -3°C° 0.3 mm 6 mps 745 mmHg 91%
    09:00 -4°C° 0.3 mm 5 mps 746 mmHg 89%
    10:00 -3°C° 0.3 mm 4 mps 748 mmHg 87%
    11:00 -4°C° 0.1 mm 5 mps 749 mmHg 84%
    12:00 -2°C° 0.1 mm 5 mps 749 mmHg 81%
    13:00 -2°C° 0.1 mm 5 mps 750 mmHg 78%
    14:00 -4°C° 0.1 mm 5 mps 751 mmHg 80%
    15:00 -3°C° 0.1 mm 4 mps 752 mmHg 83%
    16:00 -4°C° 0.1 mm 4 mps 752 mmHg 85%
    17:00 -4°C° 0 mm 4 mps 753 mmHg 85%
    18:00 -4°C° 0 mm 4 mps 753 mmHg 86%
    19:00 -5°C° 0 mm 4 mps 754 mmHg 86%
    20:00 -5°C° 0 mm 4 mps 754 mmHg 86%
    21:00 -5°C° 0 mm 4 mps 754 mmHg 85%
    22:00 -5°C° 0 mm 4 mps 755 mmHg 84%
    23:00 -6°C° 0 mm 5 mps 755 mmHg 85%

    Tomorrow, 19 January, Saturday

    Time Temperature Precipitation Wind Pressure Humidity
    00:00 -6°C° 0 mm 5 mps 755 mmHg 86%
    01:00 -5°C° 0 mm 5 mps 756 mmHg 87%
    02:00 -5°C° 0 mm 5 mps 756 mmHg 88%
    03:00 -5°C° 0 mm 5 mps 756 mmHg 88%
    04:00 -5°C° 0 mm 5 mps 756 mmHg 89%
    05:00 -6°C° 0 mm 5 mps 756 mmHg 90%
    06:00 -6°C° 0 mm 5 mps 757 mmHg 90%
    07:00 -6°C° 0 mm 5 mps 757 mmHg 90%
    08:00 -5°C° 0 mm 5 mps 757 mmHg 90%
    09:00 -5°C° 0 mm 5 mps 758 mmHg 89%
    10:00 -5°C° 0 mm 5 mps 758 mmHg 89%
    11:00 -3°C° 0 mm 4 mps 758 mmHg 89%
    12:00 -2°C° 0 mm 4 mps 758 mmHg 88%
    13:00 -2°C° 0 mm 4 mps 758 mmHg 88%
    14:00 -2°C° 0 mm 4 mps 758 mmHg 89%
    15:00 -3°C° 0 mm 4 mps 758 mmHg 90%
    16:00 -3°C° 0 mm 4 mps 758 mmHg 91%
    17:00 -4°C° 0 mm 4 mps 758 mmHg 91%
    18:00 -4°C° 0 mm 4 mps 758 mmHg 91%
    19:00 -4°C° 0 mm 4 mps 758 mmHg 91%
    20:00 -4°C° 0 mm 4 mps 758 mmHg 90%
    21:00 -4°C° 0 mm 4 mps 758 mmHg 90%
    22:00 -5°C° 0 mm 4 mps 758 mmHg 90%
    23:00 -5°C° 0 mm 4 mps 758 mmHg 91%

    Day after tomorrow, 20 January, Sunday

    Time Temperature Precipitation Wind Pressure Humidity
    00:00 -5°C° 0 mm 4 mps 758 mmHg 92%
    01:00 -5°C° 0 mm 4 mps 758 mmHg 93%
    02:00 -5°C° 0 mm 4 mps 758 mmHg 93%
    03:00 -5°C° 0 mm 4 mps 757 mmHg 93%
    04:00 -7°C° 0 mm 4 mps 757 mmHg 93%
    05:00 -7°C° 0 mm 4 mps 757 mmHg 93%
    06:00 -7°C° 0 mm 4 mps 757 mmHg 93%
    07:00 -7°C° 0 mm 4 mps 757 mmHg 92%
    08:00 -5°C° 0 mm 4 mps 757 mmHg 91%
    09:00 -5°C° 0 mm 4 mps 757 mmHg 90%
    10:00 -4°C° 0 mm 4 mps 757 mmHg 89%
    11:00 -4°C° 0.1 mm 5 mps 757 mmHg 89%
    12:00 -4°C° 0.1 mm 5 mps 756 mmHg 89%
    13:00 -2°C° 0.1 mm 5 mps 756 mmHg 88%
    14:00 -2°C° 0.2 mm 5 mps 756 mmHg 90%
    15:00 -2°C° 0.2 mm 4 mps 756 mmHg 91%
    16:00 -2°C° 0.2 mm 4 mps 756 mmHg 93%
    17:00 -2°C° 0.1 mm 3 mps 757 mmHg 93%
    18:00 -2°C° 0.1 mm 2 mps 757 mmHg 94%
    19:00 -1°C° 0.1 mm 1 mps 757 mmHg 94%
    20:00 -2°C° 0 mm 1 mps 758 mmHg 93%
    21:00 -3°C° 0 mm 1 mps 758 mmHg 92%
    22:00 -3°C° 0 mm 1 mps 758 mmHg 91%
    23:00 -4°C° 0 mm 1 mps 759 mmHg 89%

    21 January, Monday

    Time Temperature Precipitation Wind Pressure Humidity
    00:00 -4°C° 0 mm 1 mps 759 mmHg 88%
    01:00 -6°C° 0 mm 2 mps 759 mmHg 87%
    02:00 -6°C° 0 mm 2 mps 760 mmHg 85%
    03:00 -6°C° 0 mm 2 mps 760 mmHg 83%
    04:00 -6°C° 0 mm 2 mps 760 mmHg 81%
    05:00 -6°C° 0 mm 2 mps 760 mmHg 81%
    06:00 -6°C° 0 mm 2 mps 760 mmHg 80%
    07:00 -6°C° 0 mm 2 mps 761 mmHg 80%
    08:00 -6°C° 0 mm 2 mps 761 mmHg 80%
    09:00 -6°C° 0 mm 3 mps 761 mmHg 81%
    10:00 -5°C° 0 mm 3 mps 761 mmHg 81%
    11:00 -5°C° 0 mm 3 mps 761 mmHg 81%
    12:00 -4°C° 0 mm 3 mps 761 mmHg 80%
    13:00 -4°C° 0 mm 3 mps 761 mmHg 80%
    14:00 -4°C° 0 mm 3 mps 760 mmHg 82%
    15:00 -5°C° 0 mm 3 mps 760 mmHg 84%
    16:00 -6°C° 0 mm 3 mps 760 mmHg 86%
    17:00 -5°C° 0 mm 3 mps 760 mmHg 88%
    18:00 -4°C° 0 mm 4 mps 759 mmHg 90%
    19:00 -4°C° 0 mm 4 mps 759 mmHg 92%
    20:00 -4°C° 0 mm 4 mps 759 mmHg 91%
    21:00 -4°C° 0 mm 4 mps 758 mmHg 91%
    22:00 -4°C° 0 mm 4 mps 758 mmHg 90%
    23:00 -4°C° 0.2 mm 4 mps 758 mmHg 91%

    22 January, Tuesday

    Time Temperature Precipitation Wind Pressure Humidity
    00:00 -5°C° 0.2 mm 5 mps 757 mmHg 91%
    01:00 -5°C° 0.2 mm 5 mps 757 mmHg 92%
    02:00 -5°C° 0.2 mm 5 mps 756 mmHg 91%
    03:00 -4°C° 0.2 mm 4 mps 756 mmHg 91%
    04:00 -5°C° 0.2 mm 4 mps 755 mmHg 90%
    05:00 -5°C° 0 mm 4 mps 755 mmHg 91%
    06:00 -7°C° 0 mm 4 mps 755 mmHg 92%
    07:00 -6°C° 0 mm 3 mps 755 mmHg 92%
    08:00 -7°C° 0 mm 4 mps 754 mmHg 92%
    09:00 -5°C° 0 mm 4 mps 754 mmHg 92%
    10:00 -5°C° 0 mm 4 mps 754 mmHg 91%
    11:00 -4°C° 0 mm 4 mps 754 mmHg 90%
    12:00 -4°C° 0 mm 4 mps 753 mmHg 89%
    13:00 -3°C° 0 mm 4 mps 753 mmHg 88%
    14:00 -4°C° 0 mm 4 mps 752 mmHg 87%
    15:00 -4°C° 0 mm 4 mps 752 mmHg 85%
    16:00 -5°C° 0 mm 4 mps 751 mmHg 84%
    17:00 -5°C° 0 mm 4 mps 751 mmHg 83%
    18:00 -6°C° 0 mm 5 mps 750 mmHg 82%
    19:00 -7°C° 0 mm 5 mps 750 mmHg 82%
    20:00 -7°C° 0 mm 5 mps 750 mmHg 82%
    21:00 -7°C° 0 mm 5 mps 749 mmHg 83%
    22:00 -7°C° 0 mm 5 mps 749 mmHg 83%
    23:00 -7°C° 0 mm 5 mps 748 mmHg 83%

    23 January, Wednesday

    Time Temperature Precipitation Wind Pressure Humidity
    00:00 -7°C° 0 mm 5 mps 748 mmHg 83%
    01:00 -7°C° 0 mm 5 mps 748 mmHg 84%
    02:00 -8°C° 0 mm 5 mps 747 mmHg 85%
    03:00 -8°C° 0 mm 5 mps 747 mmHg 87%
    04:00 -8°C° 0 mm 5 mps 746 mmHg 89%
    05:00 -8°C° 0 mm 5 mps 746 mmHg 90%
    06:00 -10°C° 0 mm 5 mps 746 mmHg 90%
    07:00 -10°C° 0 mm 5 mps 746 mmHg 90%
    08:00 -9°C° 0 mm 6 mps 746 mmHg 90%
    09:00 -9°C° 0 mm 6 mps 746 mmHg 90%
    10:00 -9°C° 0 mm 6 mps 746 mmHg 89%
    11:00 -8°C° 0 mm 6 mps 745 mmHg 89%
    12:00 -8°C° 0 mm 6 mps 745 mmHg 88%
    13:00 -6°C° 0 mm 6 mps 745 mmHg 88%
    14:00 -8°C° 0 mm 6 mps 745 mmHg 88%
    15:00 -8°C° 0 mm 6 mps 744 mmHg 88%
    16:00 -7°C° 0 mm 5 mps 744 mmHg 89%
    17:00 -7°C° 0.1 mm 5 mps 744 mmHg 89%
    18:00 -7°C° 0.1 mm 5 mps 744 mmHg 89%
    19:00 -6°C° 0.1 mm 5 mps 744 mmHg 89%
    20:00 -6°C° 0 mm 5 mps 744 mmHg 89%
    21:00 -5°C° 0 mm 5 mps 744 mmHg 89%
    22:00 -4°C° 0 mm 5 mps 744 mmHg 89%
    23:00 -4°C° 0 mm 5 mps 744 mmHg 89%
    Show more